Location: Newark
(49.5647°N, 8.2922°E)
Time: 06:21:14
(UTC+00:00)

Transit 2A - Pass Details

Date: 26 February 2020
Orbit: 597 x 962 km, 66.7° (Epoch: 07 April)

Event Time Altitude Azimuth Distance (km) Brightness Sun altitude
Rises 20:20:52 0° 321° (NW) 3,089 10.1 -32.0°
Reaches altitude 10° 20:23:08 10° 318° (NW) 2,219 9.1 -32.3°
Enters shadow 20:26:39 43° 295° (WNW) 1,064 7.0 -32.8°
Maximum altitude 20:28:07 60° 239° (WSW) 890 - -33.0°
Drops below altitude 10° 20:33:39 10° 161° (SSE) 2,449 - -33.8°
Sets 20:36:15 0° 158° (SSE) 3,436 - -34.1°
